Regional Weather Roundup
Issued by NWS Little Rock, AR

Home | Current Version | Previous Version | Graphics & Text | Print | Product List | Glossary On
Versions: 1 2 3 4 5 6 7 8 9 10 11 12 13 14 15 16 17 18 19 20 21 22 23 24 25 26 27 28 29 30 31 32 33 34 35 36 37 38 39 40 41 42 43 44 45 46 47 48 49 50
000
ASUS44 KLZK 050005
RWRLZK

WEATHER ROUNDUP FOR ARKANSAS
NATIONAL WEATHER SERVICE LITTLE ROCK AR
600 PM CST WED MAR 04 2015

NOTE: "FAIR" INDICATES FEW OR NO CLOUDS BELOW 12,000 FEET WITH NO
SIGNIFICANT WEATHER AND/OR OBSTRUCTIONS TO VISIBILITY.

ARZ001-003-010-029-050100-
NORTHWEST ARKANSAS

CITY           SKY/WX    TMP DP  RH WIND       PRES   REMARKS
FAYETTEVILLE   CLOUDY    22  19  89 N10       30.22R WCI  11
6HR MIN TEMP:  22; 6HR MAX TEMP:  29; 6HR PCP:  0.11;

FORT SMITH     MIX PCPN  29  24  82 N14       30.21R WCI  18
6HR MIN TEMP:  29; 6HR MAX TEMP:  38; 6HR PCP:  0.38;

HARRISON       LGT SNOW  20  18  92 N10       30.21S FOG     WCI   9
6HR MIN TEMP:  20; 6HR MAX TEMP:  30; 6HR PCP:  0.23;

BENTONVILLE    CLOUDY    21  16  79 NE15      30.24R WCI   8
6HR MIN TEMP:  21; 6HR MAX TEMP:  25;

ROGERS         FLURRIES  21  17  84 N13       30.24R WCI   9
6HR MIN TEMP:  21; 6HR MAX TEMP:  22; 6HR PCP:  0.03;

SILOAM SPGS    CLOUDY    21  12  68 N14G21    30.25R WCI   8
6HR MIN TEMP:  21; 6HR MAX TEMP:  27; 6HR PCP:  0.02;

HIGHFILL       LGT SNOW  22  18  85 N15       30.23R FOG     WCI   9
6HR MIN TEMP:  22; 6HR MAX TEMP:  26; 6HR PCP:  0.01;

SPRINGDALE     LGT SNOW  23  18  80 N14       30.26R FOG     WCI  11
$$

ARZ004-005-016-050100-
NORTH CENTRAL ARKANSAS

CITY           SKY/WX    TMP DP  RH WIND       PRES   REMARKS
BATESVILLE     CLOUDY    27  21  80 NW8       30.23R WCI  18
6HR MIN TEMP:  27; 6HR MAX TEMP:  37; 6HR PCP:  0.14;

FLIPPIN        CLOUDY    21  18  86 CALM      30.23S VSB 1/4
6HR MIN TEMP:  21; 6HR MAX TEMP:  30;

MTN HOME       HVY SNOW  21  19  92 N9        30.22S VSB 1/4 WCI  11
6HR MIN TEMP:  20; 6HR MAX TEMP:  29;

$$

ARZ040-041-050100-
WEST CENTRAL ARKANSAS

CITY           SKY/WX    TMP DP  RH WIND       PRES   REMARKS
MENA           CLOUDY    36  32  87 CALM      30.07S
MOUNT IDA      RAIN      34  31  88 VRB7      30.08R FOG     WCI  28
6HR MIN TEMP:  34; 6HR MAX TEMP:  44; 6HR PCP:  0.79;

$$

ARZ009-017-025-026-028-050100-
NORTHEAST ARKANSAS

CITY           SKY/WX    TMP DP  RH WIND       PRES   REMARKS
CORNING        HVY SNOW  25  23  93 N21G26    30.24R VSB 1/4 WCI  10
JONESBORO      MIX PCPN  25  24  96 N14       30.19R FOG     WCI  13
6HR MIN TEMP:  25; 6HR MAX TEMP:  36; 6HR PCP:  0.40;

NEWPORT        LGT SNOW  27  27 100 N18G29    30.24R FOG     WCI  13
6HR MIN TEMP:  27; 6HR MAX TEMP:  38; 6HR PCP:  0.45;

WALNUT RIDGE   CLOUDY    25  19  80 N15G25    30.22R WCI  12
6HR MIN TEMP:  25; 6HR MAX TEMP:  36; 6HR PCP:  0.10;

BLYTHEVILLE    MIX PCPN  27  26  96 N21       30.17R FOG     WCI  13
6HR MIN TEMP:  27; 6HR MAX TEMP:  33;

$$

ARZ022-023-033-042-044-050100-
CENTRAL ARKANSAS

CITY           SKY/WX    TMP DP  RH WIND       PRES   REMARKS
LITTLE ROCK    LGTSLEET  33  31  92 N14       30.13R FOG     WCI  23
6HR MIN TEMP:  33; 6HR MAX TEMP:  44; 6HR PCP:  1.10;

N LITTLE ROCK  CLOUDY    31  31 100 NE14G26   30.11  WCI  20
JACKSONVILLE   LGTSLEET  32  29  92 N10G22    30.12S WCI  23
6HR MIN TEMP:  32; 6HR MAX TEMP:  41;

SEARCY         LGT SNOW  28  27  93 N21       30.17S FOG     WCI  15
6HR MIN TEMP:  29; 6HR MAX TEMP:  40; 6HR PCP:  0.62;

HOT SPRINGS    HVY RAIN  34  30  85 NE17G26   30.11R FOG     WCI  23
6HR MIN TEMP:  34; 6HR MAX TEMP:  42; 6HR PCP:  0.98;

RUSSELLVILLE   MIX PCPN  29  25  85 N10       30.17F WCI  20
6HR MIN TEMP:  29; 6HR MAX TEMP:  39;

CLINTON        LGT SNOW  27  23  86 CALM      30.19F VSB 3/4
$$

ARZ036-050100-
EAST ARKANSAS

CITY           SKY/WX    TMP DP  RH WIND       PRES   REMARKS
WEST MEMPHIS   MIX PCPN  29  28  96 NE25G35   30.11R FOG     WCI  14
6HR MIN TEMP:  29; 6HR MAX TEMP:  37; 6HR PCP:  0.63;

$$

ARZ050-053-066-070-073-050100-
SOUTHWEST ARKANSAS

CITY           SKY/WX    TMP DP  RH WIND       PRES   REMARKS
CAMDEN         LGT RAIN  39  36  87 MISG      30.04R VSB 1
TEXARKANA      LGT RAIN  40  39  97 NE12G24   29.98F FOG
6HR MIN TEMP:  40; 6HR MAX TEMP:  54; 6HR PCP:  1.04;

EL DORADO      CLOUDY    40  37  89 NE18G24   30.00R
6HR MIN TEMP:  40; 6HR MAX TEMP:  62; 6HR PCP:  0.22;

DE QUEEN       RAIN      39  35  86 N9        30.03R FOG
6HR MIN TEMP:  39; 6HR MAX TEMP:  50;

$$

ARZ056-057-069-050100-
SOUTHEAST ARKANSAS

CITY           SKY/WX    TMP DP  RH WIND       PRES   REMARKS
PINE BLUFF     RAIN      34  32  92 N20G31    30.10R FOG     WCI  23
6HR MIN TEMP:  34; 6HR MAX TEMP:  42; 6HR PCP:  0.78;

STUTTGART      CLOUDY    32  28  86 N22G32    30.11S WCI  19
6HR MIN TEMP:  32; 6HR MAX TEMP:  43; 6HR PCP:  1.02;

MONTICELLO     RAIN      37  34  89 N10G29    30.03R FOG
6HR MIN TEMP:  37; 6HR MAX TEMP:  47; 6HR PCP:  0.32;


$$




USA.gov is the U.S. government's official web portal to all federal, state and local government web resources and services.